Time,TemperatureF,DewpointF,PressureIn,WindDirection,WindDirectionDegrees,WindSpeedMPH,WindSpeedGustMPH,Humidity,HourlyPrecipIn,Conditions,Clouds,dailyrainin,SoftwareType,DateUTC
2013-11-10 00:07:00,51.3,49.0,30.14,SSE,160,0.0,-999.0,91,-99.99,,,0.00,weatherlink.com 1.10,2013-11-10 05:07:00,
2013-11-10 00:22:00,51.4,49.0,30.13,SSE,160,0.0,-999.0,91,-99.99,,,0.00,weatherlink.com 1.10,2013-11-10 05:22:00,
2013-11-10 00:37:00,51.7,50.0,30.14,SSE,160,0.0,-999.0,92,-99.99,,,0.00,weatherlink.com 1.10,2013-11-10 05:37:00,
2013-11-10 00:52:00,52.2,50.0,30.13,SSE,160,0.0,-999.0,92,-99.99,,,0.00,weatherlink.com 1.10,2013-11-10 05:52:00,
2013-11-10 01:07:00,52.5,50.0,30.13,SSE,160,0.0,-999.0,91,-99.99,,,0.00,weatherlink.com 1.10,2013-11-10 06:07:00,
2013-11-10 01:22:00,52.8,50.0,30.12,SSE,160,0.0,-999.0,91,-99.99,,,0.00,weatherlink.com 1.10,2013-11-10 06:22:00,
2013-11-10 01:37:00,52.8,50.0,30.12,SSE,160,0.0,-999.0,89,-99.99,,,0.00,weatherlink.com 1.10,2013-11-10 06:37:00,
2013-11-10 01:52:00,52.6,50.0,30.12,SSE,160,0.0,-999.0,89,-99.99,,,0.00,weatherlink.com 1.10,2013-11-10 06:52:00,
2013-11-10 02:07:00,52.3,49.0,30.12,SSE,160,0.0,-999.0,88,-99.99,,,0.00,weatherlink.com 1.10,2013-11-10 07:07:00,
2013-11-10 02:22:00,51.9,49.0,30.12,SSE,160,0.0,-999.0,88,-99.99,,,0.00,weatherlink.com 1.10,2013-11-10 07:22:00,
2013-11-10 02:37:00,51.3,48.0,30.12,SSE,160,0.0,-999.0,88,-99.99,,,0.00,weatherlink.com 1.10,2013-11-10 07:37:00,
2013-11-10 02:52:00,50.5,47.0,30.12,SSE,160,0.0,-999.0,88,-99.99,,,0.00,weatherlink.com 1.10,2013-11-10 07:52:00,
2013-11-10 03:07:00,49.6,46.0,30.12,SSE,160,0.0,-999.0,88,-99.99,,,0.00,weatherlink.com 1.10,2013-11-10 08:07:00,
2013-11-10 03:22:00,48.8,45.0,30.12,SSE,160,0.0,-999.0,88,-99.99,,,0.00,weatherlink.com 1.10,2013-11-10 08:22:00,
2013-11-10 03:37:00,48.3,45.0,30.12,SSE,160,0.0,-999.0,88,-99.99,,,0.00,weatherlink.com 1.10,2013-11-10 08:37:00,
2013-11-10 03:52:00,48.0,45.0,30.12,SSE,160,0.0,-999.0,89,-99.99,,,0.00,weatherlink.com 1.10,2013-11-10 08:52:00,
2013-11-10 04:07:00,47.9,45.0,30.12,SSE,160,0.0,-999.0,89,-99.99,,,0.00,weatherlink.com 1.10,2013-11-10 09:07:00,
2013-11-10 04:22:00,47.4,44.0,30.11,SSE,160,0.0,-999.0,89,-99.99,,,0.00,weatherlink.com 1.10,2013-11-10 09:22:00,
2013-11-10 04:37:00,47.1,44.0,30.11,SSE,160,0.0,-999.0,90,-99.99,,,0.00,weatherlink.com 1.10,2013-11-10 09:37:00,
2013-11-10 04:52:00,46.8,44.0,30.12,SSE,160,0.0,-999.0,91,-99.99,,,0.00,weatherlink.com 1.10,2013-11-10 09:52:00,
2013-11-10 05:07:00,46.7,44.0,30.12,SSE,160,0.0,-999.0,91,-99.99,,,0.00,weatherlink.com 1.10,2013-11-10 10:07:00,
2013-11-10 05:22:00,46.7,45.0,30.12,SSE,160,0.0,-999.0,92,-99.99,,,0.00,weatherlink.com 1.10,2013-11-10 10:22:00,
2013-11-10 05:37:00,46.7,45.0,30.12,SSE,160,0.0,-999.0,92,-99.99,,,0.00,weatherlink.com 1.10,2013-11-10 10:37:00,
2013-11-10 05:52:00,47.3,45.0,30.12,SSE,160,0.0,-999.0,92,-99.99,,,0.00,weatherlink.com 1.10,2013-11-10 10:52:00,
2013-11-10 06:07:00,47.9,46.0,30.13,SSE,160,0.0,-999.0,92,-99.99,,,0.00,weatherlink.com 1.10,2013-11-10 11:07:00,
2013-11-10 06:22:00,48.2,46.0,30.13,SSE,160,0.0,-999.0,92,-99.99,,,0.00,weatherlink.com 1.10,2013-11-10 11:22:00,
2013-11-10 06:37:00,48.2,46.0,30.14,SSE,160,0.0,-999.0,91,-99.99,,,0.00,weatherlink.com 1.10,2013-11-10 11:37:00,
2013-11-10 06:52:00,49.1,46.0,30.14,WSW,244,0.0,-999.0,88,-99.99,,,0.00,weatherlink.com 1.10,2013-11-10 11:52:00,
2013-11-10 07:07:00,49.8,46.0,30.14,WNW,292,0.0,-999.0,86,-99.99,,,0.00,weatherlink.com 1.10,2013-11-10 12:07:00,
2013-11-10 07:22:00,50.1,46.0,30.14,WNW,292,0.0,-999.0,85,-99.99,,,0.00,weatherlink.com 1.10,2013-11-10 12:22:00,
2013-11-10 07:37:00,50.5,46.0,30.14,WNW,292,0.0,-999.0,84,-99.99,,,0.00,weatherlink.com 1.10,2013-11-10 12:37:00,
2013-11-10 07:52:00,52.2,47.0,30.15,WNW,292,0.0,-999.0,82,-99.99,,,0.00,weatherlink.com 1.10,2013-11-10 12:52:00,
2013-11-10 08:07:00,54.2,44.0,30.15,NW,308,0.0,-999.0,69,-99.99,,,0.00,weatherlink.com 1.10,2013-11-10 13:07:00,
2013-11-10 08:22:00,54.8,44.0,30.15,NNW,330,0.0,-999.0,67,-99.99,,,0.00,weatherlink.com 1.10,2013-11-10 13:22:00,
2013-11-10 08:37:00,55.7,43.0,30.15,NNW,344,0.0,-999.0,62,-99.99,,,0.00,weatherlink.com 1.10,2013-11-10 13:37:00,
2013-11-10 08:52:00,55.6,43.0,30.15,NNW,336,0.0,-999.0,62,-99.99,,,0.00,weatherlink.com 1.10,2013-11-10 13:52:00,
2013-11-10 09:07:00,56.5,43.0,30.15,NW,319,0.0,-999.0,61,-99.99,,,0.00,weatherlink.com 1.10,2013-11-10 14:07:00,
2013-11-10 09:22:00,58.0,43.0,30.15,NNW,335,0.0,-999.0,57,-99.99,,,0.00,weatherlink.com 1.10,2013-11-10 14:22:00,
2013-11-10 09:37:00,58.9,42.0,30.15,West,271,0.0,-999.0,54,-99.99,,,0.00,weatherlink.com 1.10,2013-11-10 14:37:00,
2013-11-10 09:52:00,60.1,40.0,30.14,NW,312,0.0,-999.0,48,-99.99,,,0.00,weatherlink.com 1.10,2013-11-10 14:52:00,
2013-11-10 10:07:00,61.2,41.0,30.13,NNW,343,4.0,-999.0,48,-99.99,,,0.00,weatherlink.com 1.10,2013-11-10 15:07:00,
2013-11-10 10:22:00,61.8,39.0,30.13,NNW,346,7.0,-999.0,44,-99.99,,,0.00,weatherlink.com 1.10,2013-11-10 15:22:00,
2013-11-10 10:37:00,62.7,41.0,30.13,NW,318,0.0,-999.0,46,-99.99,,,0.00,weatherlink.com 1.10,2013-11-10 15:37:00,
2013-11-10 10:52:00,63.9,40.0,30.12,West,274,0.0,-999.0,42,-99.99,,,0.00,weatherlink.com 1.10,2013-11-10 15:52:00,
2013-11-10 11:07:00,64.7,40.0,30.11,North,11,1.0,-999.0,41,-99.99,,,0.00,weatherlink.com 1.10,2013-11-10 16:07:00,
2013-11-10 11:22:00,65.0,39.0,30.10,SW,234,0.0,-999.0,39,-99.99,,,0.00,weatherlink.com 1.10,2013-11-10 16:22:00,
2013-11-10 11:37:00,65.8,42.0,30.09,NW,325,0.0,-999.0,42,-99.99,,,0.00,weatherlink.com 1.10,2013-11-10 16:37:00,
2013-11-10 11:52:00,66.4,41.0,30.08,NNW,337,0.0,-999.0,39,-99.99,,,0.00,weatherlink.com 1.10,2013-11-10 16:52:00,
2013-11-10 12:07:00,66.9,39.0,30.08,WNW,295,0.0,-999.0,36,-99.99,,,0.00,weatherlink.com 1.10,2013-11-10 17:07:00,
2013-11-10 12:22:00,67.1,41.0,30.07,NW,305,0.0,-999.0,38,-99.99,,,0.00,weatherlink.com 1.10,2013-11-10 17:22:00,
2013-11-10 12:37:00,67.3,41.0,30.05,North,0,0.0,-999.0,38,-99.99,,,0.00,weatherlink.com 1.10,2013-11-10 17:37:00,
2013-11-10 12:52:00,68.1,41.0,30.05,NNW,344,4.0,-999.0,37,-99.99,,,0.00,weatherlink.com 1.10,2013-11-10 17:52:00,
2013-11-10 13:07:00,68.8,43.0,30.04,NW,326,6.0,-999.0,39,-99.99,,,0.00,weatherlink.com 1.10,2013-11-10 18:07:00,
2013-11-10 13:22:00,69.1,42.0,30.04,West,274,0.0,-999.0,37,-99.99,,,0.00,weatherlink.com 1.10,2013-11-10 18:22:00,
2013-11-10 13:37:00,69.8,41.0,30.03,WNW,302,0.0,-999.0,35,-99.99,,,0.00,weatherlink.com 1.10,2013-11-10 18:37:00,
2013-11-10 13:52:00,69.9,43.0,30.03,WNW,299,0.0,-999.0,38,-99.99,,,0.00,weatherlink.com 1.10,2013-11-10 18:52:00,
2013-11-10 14:07:00,70.1,42.0,30.03,WNW,291,0.0,-999.0,36,-99.99,,,0.00,weatherlink.com 1.10,2013-11-10 19:07:00,
2013-11-10 14:22:00,70.4,41.0,30.02,West,261,0.0,-999.0,34,-99.99,,,0.00,weatherlink.com 1.10,2013-11-10 19:22:00,
2013-11-10 14:37:00,70.3,45.0,30.02,WSW,246,0.0,-999.0,41,-99.99,,,0.00,weatherlink.com 1.10,2013-11-10 19:37:00,
2013-11-10 14:52:00,69.1,47.0,30.01,WSW,258,0.0,-999.0,46,-99.99,,,0.00,weatherlink.com 1.10,2013-11-10 19:52:00,
2013-11-10 15:07:00,68.6,47.0,30.01,South,188,0.0,-999.0,47,-99.99,,,0.00,weatherlink.com 1.10,2013-11-10 20:07:00,
2013-11-10 15:22:00,68.4,48.0,30.01,South,186,0.0,-999.0,49,-99.99,,,0.00,weatherlink.com 1.10,2013-11-10 20:22:00,
2013-11-10 15:37:00,67.8,49.0,30.01,South,178,0.0,-999.0,52,-99.99,,,0.00,weatherlink.com 1.10,2013-11-10 20:37:00,
2013-11-10 15:52:00,66.6,48.0,30.01,WSW,254,0.0,-999.0,52,-99.99,,,0.00,weatherlink.com 1.10,2013-11-10 20:52:00,
2013-11-10 16:07:00,65.8,47.0,30.02,West,278,0.0,-999.0,51,-99.99,,,0.00,weatherlink.com 1.10,2013-11-10 21:07:00,
2013-11-10 16:22:00,65.2,48.0,30.02,SSW,210,0.0,-999.0,55,-99.99,,,0.00,weatherlink.com 1.10,2013-11-10 21:22:00,
2013-11-10 16:37:00,64.5,50.0,30.02,SSW,209,0.0,-999.0,60,-99.99,,,0.00,weatherlink.com 1.10,2013-11-10 21:37:00,
2013-11-10 16:52:00,63.5,50.0,30.02,SSW,209,0.0,-999.0,62,-99.99,,,0.00,weatherlink.com 1.10,2013-11-10 21:52:00,
2013-11-10 17:07:00,62.0,49.0,30.02,SSW,209,0.0,-999.0,63,-99.99,,,0.00,weatherlink.com 1.10,2013-11-10 22:07:00,
2013-11-10 17:22:00,61.0,49.0,30.03,SSW,209,0.0,-999.0,65,-99.99,,,0.00,weatherlink.com 1.10,2013-11-10 22:22:00,
2013-11-10 17:37:00,60.1,49.0,30.03,SSW,209,0.0,-999.0,67,-99.99,,,0.00,weatherlink.com 1.10,2013-11-10 22:37:00,
2013-11-10 17:52:00,59.5,50.0,30.04,West,265,0.0,-999.0,70,-99.99,,,0.00,weatherlink.com 1.10,2013-11-10 22:52:00,
2013-11-10 18:07:00,58.9,50.0,30.05,West,265,0.0,-999.0,73,-99.99,,,0.00,weatherlink.com 1.10,2013-11-10 23:07:00,
2013-11-10 18:22:00,58.3,51.0,30.05,West,265,0.0,-999.0,76,-99.99,,,0.00,weatherlink.com 1.10,2013-11-10 23:22:00,
2013-11-10 18:37:00,57.5,51.0,30.06,West,265,0.0,-999.0,78,-99.99,,,0.00,weatherlink.com 1.10,2013-11-10 23:37:00,
2013-11-10 18:52:00,56.6,50.0,30.06,West,265,0.0,-999.0,78,-99.99,,,0.00,weatherlink.com 1.10,2013-11-10 23:52:00,
2013-11-10 19:07:00,55.6,50.0,30.07,West,265,0.0,-999.0,80,-99.99,,,0.00,weatherlink.com 1.10,2013-11-11 00:07:00,
2013-11-10 19:22:00,54.7,48.0,30.07,West,265,0.0,-999.0,78,-99.99,,,0.00,weatherlink.com 1.10,2013-11-11 00:22:00,
2013-11-10 19:37:00,53.8,48.0,30.07,West,265,0.0,-999.0,81,-99.99,,,0.00,weatherlink.com 1.10,2013-11-11 00:37:00,
2013-11-10 19:52:00,52.9,48.0,30.07,West,265,0.0,-999.0,82,-99.99,,,0.00,weatherlink.com 1.10,2013-11-11 00:52:00,
2013-11-10 20:07:00,52.0,47.0,30.07,West,265,0.0,-999.0,84,-99.99,,,0.00,weatherlink.com 1.10,2013-11-11 01:07:00,
2013-11-10 20:22:00,51.4,47.0,30.07,West,265,0.0,-999.0,86,-99.99,,,0.00,weatherlink.com 1.10,2013-11-11 01:22:00,
2013-11-10 20:37:00,51.0,47.0,30.08,West,265,0.0,-999.0,86,-99.99,,,0.00,weatherlink.com 1.10,2013-11-11 01:37:00,
2013-11-10 20:52:00,50.4,47.0,30.08,West,265,0.0,-999.0,87,-99.99,,,0.00,weatherlink.com 1.10,2013-11-11 01:52:00,
2013-11-10 21:07:00,49.8,46.0,30.08,West,265,0.0,-999.0,87,-99.99,,,0.00,weatherlink.com 1.10,2013-11-11 02:07:00,
2013-11-10 21:22:00,49.2,46.0,30.08,West,265,0.0,-999.0,87,-99.99,,,0.00,weatherlink.com 1.10,2013-11-11 02:22:00,
2013-11-10 21:37:00,48.8,45.0,30.09,West,265,0.0,-999.0,88,-99.99,,,0.00,weatherlink.com 1.10,2013-11-11 02:37:00,
2013-11-10 21:52:00,48.5,45.0,30.09,West,265,0.0,-999.0,88,-99.99,,,0.00,weatherlink.com 1.10,2013-11-11 02:52:00,
2013-11-10 22:07:00,47.9,45.0,30.09,West,265,0.0,-999.0,88,-99.99,,,0.00,weatherlink.com 1.10,2013-11-11 03:07:00,
2013-11-10 22:22:00,47.4,44.0,30.09,West,265,0.0,-999.0,88,-99.99,,,0.00,weatherlink.com 1.10,2013-11-11 03:22:00,
2013-11-10 22:37:00,47.1,44.0,30.09,West,265,0.0,-999.0,89,-99.99,,,0.00,weatherlink.com 1.10,2013-11-11 03:37:00,
2013-11-10 22:52:00,47.0,44.0,30.09,West,265,0.0,-999.0,89,-99.99,,,0.00,weatherlink.com 1.10,2013-11-11 03:52:00,
2013-11-10 23:07:00,46.8,44.0,30.09,West,265,0.0,-999.0,89,-99.99,,,0.00,weatherlink.com 1.10,2013-11-11 04:07:00,
2013-11-10 23:22:00,47.7,44.0,30.09,West,272,0.0,-999.0,88,-99.99,,,0.00,weatherlink.com 1.10,2013-11-11 04:22:00,
2013-11-10 23:38:00,49.4,44.0,30.09,North,356,0.0,-999.0,81,-99.99,,,0.00,weatherlink.com 1.10,2013-11-11 04:38:00,
2013-11-10 23:53:00,51.1,43.0,30.10,NNW,346,0.0,-999.0,75,-99.99,,,0.00,weatherlink.com 1.10,2013-11-11 04:53:00,